| time (UTC) | temp C | wind direction | speed KPH | gust KPH | rain 1hr cm | rain 24hr cm | rain mn cm | humidity % | barometer mb |
| 20260508060729 | 3 | 38 | 0.0 | 3.2 | 0.00 | 0.00 | 0.00 | 83 | 1006.7 |
| 20260508060227 | 2 | 339 | 3.2 | 3.2 | 0.00 | 0.00 | 0.00 | 83 | 1006.7 |
| 20260508055722 | 2 | 326 | 0.0 | 1.6 | 0.00 | 0.00 | 0.00 | 83 | 1006.9 |
| 20260508055220 | 2 | 321 | 1.6 | 1.6 | 0.00 | 0.00 | 0.00 | 82 | 1007.1 |
| 20260508054716 | 3 | 202 | 0.0 | 3.2 | 0.00 | 0.00 | 0.00 | 81 | 1006.9 |
| 20260508054214 | 3 | 66 | 1.6 | 3.2 | 0.00 | 0.00 | 0.00 | 79 | 1007.1 |
| 20260508053710 | 3 | 62 | 0.0 | 1.6 | 0.00 | 0.00 | 0.00 | 78 | 1007.2 |
| 20260508053208 | 3 | 6 | 0.0 | 1.6 | 0.00 | 0.00 | 0.00 | 78 | 1007.1 |
| 20260508052705 | 3 | 14 | 0.0 | 1.6 | 0.00 | 0.00 | 0.00 | 78 | 1007.1 |
| 20260508052202 | 3 | 19 | 1.6 | 1.6 | 0.00 | 0.00 | 0.00 | 75 | 1007.2 |
| 20260508051658 | 4 | 304 | 0.0 | 0.0 | 0.00 | 0.00 | 0.00 | 71 | 1007.2 |
| 20260508051154 | 5 | 150 | 0.0 | 3.2 | 0.00 | 0.00 | 0.00 | 68 | 1007.2 |
| 20260508050650 | 5 | 122 | 1.6 | 3.2 | 0.00 | 0.00 | 0.00 | 66 | 1007.2 |
| 20260508050147 | 6 | 132 | 3.2 | 3.2 | 0.00 | 0.00 | 0.00 | 62 | 1007.1 |
| 20260508045643 | 6 | 84 | 3.2 | 3.2 | 0.00 | 0.00 | 0.00 | 63 | 1007.2 |
| 20260508045141 | 6 | 96 | 3.2 | 3.2 | 0.00 | 0.00 | 0.00 | 62 | 1007.3 |
| 20260508044638 | 6 | 66 | 3.2 | 3.2 | 0.00 | 0.00 | 0.00 | 62 | 1007.1 |
| 20260508044134 | 5 | 33 | 1.6 | 4.8 | 0.00 | 0.00 | 0.00 | 63 | 1007.2 |
| 20260508043631 | 5 | 1 | 4.8 | 4.8 | 0.00 | 0.00 | 0.00 | 69 | 1007.3 |
| 20260508043129 | 4 | 44 | 0.0 | 3.2 | 0.00 | 0.00 | 0.00 | 72 | 1007.2 |
| 20260508042625 | 5 | 17 | 1.6 | 3.2 | 0.00 | 0.00 | 0.00 | 71 | 1007.3 |
| 20260508042123 | 5 | 290 | 0.0 | 3.2 | 0.00 | 0.00 | 0.00 | 72 | 1007.2 |
| 20260508041618 | 5 | 78 | 0.0 | 3.2 | 0.00 | 0.00 | 0.00 | 69 | 1007.3 |
| 20260508041115 | 5 | 6 | 1.6 | 4.8 | 0.00 | 0.00 | 0.00 | 71 | 1007.3 |
| 20260508040612 | 5 | 37 | 1.6 | 3.2 | 0.00 | 0.00 | 0.00 | 73 | 1007.3 |
| 20260508040110 | 5 | 286 | 0.0 | 1.6 | 0.00 | 0.28 | 0.28 | 71 | 1007.3 |
| 20260508035607 | 5 | 240 | 1.6 | 1.6 | 0.00 | 0.28 | 0.28 | 71 | 1007.3 |
| 20260508035104 | 5 | 135 | 0.0 | 1.6 | 0.00 | 0.28 | 0.28 | 67 | 1007.4 |
| 20260508034601 | 6 | 89 | 0.0 | 3.2 | 0.00 | 0.28 | 0.28 | 63 | 1007.5 |
| 20260508034058 | 6 | 87 | 1.6 | 3.2 | 0.00 | 0.28 | 0.28 | 60 | 1007.6 |
| 20260508033555 | 6 | 137 | 0.0 | 1.6 | 0.00 | 0.28 | 0.28 | 60 | 1007.6 |
| 20260508033054 | 6 | 294 | 0.0 | 3.2 | 0.00 | 0.28 | 0.28 | 61 | 1007.6 |
| 20260508032549 | 5 | 262 | 3.2 | 3.2 | 0.00 | 0.28 | 0.28 | 66 | 1007.4 |
| 20260508032047 | 5 | 332 | 3.2 | 4.8 | 0.00 | 0.28 | 0.28 | 67 | 1007.3 |
| 20260508031544 | 6 | 339 | 3.2 | 3.2 | 0.00 | 0.28 | 0.28 | 64 | 1007.4 |
| 20260508031040 | 6 | 22 | 0.0 | 3.2 | 0.00 | 0.28 | 0.28 | 61 | 1007.5 |
| 20260508030536 | 7 | 18 | 1.6 | 4.8 | 0.00 | 0.28 | 0.28 | 56 | 1007.7 |
| 20260508030035 | 7 | 70 | 3.2 | 3.2 | 0.00 | 0.28 | 0.28 | 54 | 1007.4 |
| 20260508025530 | 7 | 264 | 0.0 | 6.4 | 0.00 | 0.28 | 0.28 | 55 | 1007.2 |
| 20260508025028 | 7 | 112 | 3.2 | 4.8 | 0.00 | 0.28 | 0.28 | 54 | 1007.2 |
| 20260508024524 | 7 | 338 | 4.8 | 4.8 | 0.00 | 0.28 | 0.28 | 55 | 1007.3 |
| 20260508024021 | 7 | 181 | 3.2 | 4.8 | 0.00 | 0.28 | 0.28 | 57 | 1007.1 |
| 20260508023517 | 6 | 294 | 0.0 | 4.8 | 0.00 | 0.28 | 0.28 | 59 | 1007.2 |
| 20260508023015 | 6 | 347 | 0.0 | 3.2 | 0.00 | 0.28 | 0.28 | 64 | 1007.4 |
| 20260508022510 | 6 | 273 | 0.0 | 4.8 | 0.00 | 0.28 | 0.28 | 61 | 1007.4 |
| 20260508022008 | 6 | 250 | 1.6 | 3.2 | 0.00 | 0.28 | 0.28 | 60 | 1007.4 |
| 20260508021503 | 6 | 342 | 1.6 | 3.2 | 0.00 | 0.28 | 0.28 | 60 | 1007.3 |
| 20260508020959 | 6 | 41 | 3.2 | 4.8 | 0.00 | 0.28 | 0.28 | 61 | 1007.3 |
| 20260508020457 | 7 | 107 | 1.6 | 3.2 | 0.00 | 0.28 | 0.28 | 60 | 1007.2 |
| 20260508015954 | 7 | 60 | 3.2 | 4.8 | 0.00 | 0.28 | 0.28 | 60 | 1007.2 |
| 20260508015452 | 7 | 339 | 0.0 | 3.2 | 0.00 | 0.28 | 0.28 | 61 | 1007.4 |
| 20260508014949 | 7 | 306 | 3.2 | 6.4 | 0.00 | 0.28 | 0.28 | 58 | 1007.4 |
| 20260508014445 | 7 | 74 | 3.2 | 3.2 | 0.00 | 0.28 | 0.28 | 56 | 1007.5 |
| 20260508013941 | 7 | 69 | 3.2 | 3.2 | 0.00 | 0.28 | 0.28 | 55 | 1007.3 |
| 20260508013437 | 7 | 43 | 3.2 | 4.8 | 0.00 | 0.28 | 0.28 | 57 | 1007.4 |
| 20260508012935 | 8 | 83 | 3.2 | 4.8 | 0.00 | 0.28 | 0.28 | 53 | 1007.2 |
| 20260508012432 | 8 | 84 | 3.2 | 3.2 | 0.00 | 0.28 | 0.28 | 51 | 1007.4 |
| 20260508011929 | 8 | 58 | 3.2 | 6.4 | 0.00 | 0.28 | 0.28 | 50 | 1007.2 |
| 20260508011427 | 8 | 135 | 0.0 | 6.4 | 0.00 | 0.28 | 0.28 | 52 | 1007.1 |
| 20260508010924 | 8 | 150 | 3.2 | 6.4 | 0.00 | 0.28 | 0.28 | 51 | 1007.0 |
| 20260508010421 | 9 | 71 | 3.2 | 6.4 | 0.00 | 0.28 | 0.28 | 47 | 1007.0 |
| 20260508005918 | 9 | 313 | 4.8 | 6.4 | 0.00 | 0.28 | 0.28 | 48 | 1007.0 |
| 20260508005415 | 9 | 63 | 3.2 | 16.1 | 0.00 | 0.28 | 0.28 | 47 | 1006.9 |
| 20260508004911 | 10 | 32 | 3.2 | 8.0 | 0.00 | 0.28 | 0.28 | 47 | 1006.8 |
| 20260508004408 | 10 | 10 | 9.7 | 9.7 | 0.00 | 0.28 | 0.28 | 47 | 1006.7 |
| 20260508003904 | 10 | 291 | 4.8 | 6.4 | 0.00 | 0.28 | 0.28 | 47 | 1006.7 |
| 20260508003401 | 10 | 324 | 6.4 | 9.7 | 0.00 | 0.28 | 0.28 | 47 | 1006.6 |
| 20260508002858 | 10 | 334 | 11.3 | 14.5 | 0.00 | 0.28 | 0.28 | 46 | 1006.6 |
| 20260508002355 | 10 | 340 | 6.4 | 14.5 | 0.00 | 0.28 | 0.28 | 47 | 1006.6 |
| 20260508001851 | 10 | 340 | 11.3 | 19.3 | 0.00 | 0.28 | 0.28 | 46 | 1006.7 |
| 20260508001347 | 10 | 358 | 6.4 | 11.3 | 0.00 | 0.28 | 0.28 | 47 | 1006.5 |
| 20260508000844 | 10 | 359 | 9.7 | 9.7 | 0.00 | 0.28 | 0.28 | 47 | 1006.6 |
| 20260508000342 | 10 | 27 | 8.0 | 12.9 | 0.00 | 0.28 | 0.28 | 48 | 1006.5 |
| 20260507235837 | 10 | 18 | 14.5 | 17.7 | 0.00 | 0.28 | 0.28 | 47 | 1006.2 |
| 20260507235335 | 10 | 23 | 4.8 | 11.3 | 0.00 | 0.28 | 0.28 | 48 | 1006.4 |
| 20260507234831 | 10 | 19 | 4.8 | 6.4 | 0.00 | 0.28 | 0.28 | 48 | 1006.1 |
| 20260507234328 | 11 | 15 | 3.2 | 8.0 | 0.00 | 0.28 | 0.28 | 48 | 1006.2 |
| 20260507233824 | 11 | 24 | 4.8 | 11.3 | 0.00 | 0.28 | 0.28 | 47 | 1006.1 |
| 20260507233322 | 11 | 37 | 1.6 | 16.1 | 0.00 | 0.28 | 0.28 | 47 | 1006.1 |
| 20260507232820 | 11 | 346 | 3.2 | 14.5 | 0.00 | 0.28 | 0.28 | 47 | 1005.6 |
| 20260507232316 | 11 | 328 | 6.4 | 9.7 | 0.00 | 0.28 | 0.28 | 46 | 1005.9 |
| 20260507231813 | 12 | 15 | 6.4 | 14.5 | 0.00 | 0.28 | 0.28 | 45 | 1005.7 |
| 20260507231310 | 12 | 304 | 17.7 | 25.7 | 0.00 | 0.28 | 0.28 | 44 | 1005.7 |
| 20260507230806 | 12 | 338 | 6.4 | 24.1 | 0.00 | 0.28 | 0.28 | 45 | 1005.3 |
| 20260507230304 | 12 | 351 | 6.4 | 20.9 | 0.00 | 0.28 | 0.28 | 45 | 1005.2 |
| 20260507225803 | 12 | 346 | 19.3 | 22.5 | 0.00 | 0.28 | 0.28 | 44 | 1005.0 |
| 20260507225259 | 13 | 265 | 3.2 | 12.9 | 0.00 | 0.28 | 0.28 | 45 | 1005.0 |
| 20260507224755 | 13 | 295 | 4.8 | 24.1 | 0.00 | 0.28 | 0.28 | 44 | 1005.0 |
| 20260507224253 | 13 | 359 | 12.9 | 19.3 | 0.00 | 0.28 | 0.28 | 43 | 1004.7 |
| 20260507223749 | 13 | 340 | 9.7 | 19.3 | 0.00 | 0.28 | 0.28 | 43 | 1004.7 |
| 20260507223245 | 13 | 279 | 1.6 | 16.1 | 0.00 | 0.28 | 0.28 | 44 | 1004.7 |
| 20260507222743 | 14 | 290 | 11.3 | 14.5 | 0.00 | 0.28 | 0.28 | 43 | 1004.8 |
| 20260507222238 | 13 | 358 | 8.0 | 17.7 | 0.00 | 0.28 | 0.28 | 45 | 1004.7 |
| 20260507221736 | 13 | 339 | 9.7 | 24.1 | 0.00 | 0.28 | 0.28 | 44 | 1004.4 |
| 20260507221232 | 14 | 316 | 14.5 | 22.5 | 0.00 | 0.28 | 0.28 | 44 | 1004.5 |
| 20260507220728 | 14 | 359 | 8.0 | 24.1 | 0.00 | 0.28 | 0.28 | 45 | 1004.3 |
| 20260507220227 | 15 | 349 | 9.7 | 9.7 | 0.00 | 0.28 | 0.28 | 44 | 1004.5 |
| 20260507215722 | 15 | 328 | 9.7 | 19.3 | 0.00 | 0.28 | 0.28 | 42 | 1004.3 |
| 20260507215220 | 15 | 350 | 9.7 | 14.5 | 0.00 | 0.28 | 0.28 | 41 | 1004.1 |
| 20260507214717 | 15 | 320 | 4.8 | 24.1 | 0.00 | 0.28 | 0.28 | 42 | 1004.3 |
| 20260507214214 | 16 | 352 | 8.0 | 9.7 | 0.00 | 0.28 | 0.28 | 39 | 1004.2 |
| 20260507213709 | 15 | 304 | 6.4 | 17.7 | 0.00 | 0.28 | 0.28 | 39 | 1004.0 |
| 20260507213207 | 15 | 300 | 8.0 | 24.1 | 0.00 | 0.28 | 0.28 | 39 | 1003.8 |
| 20260507212703 | 15 | 306 | 8.0 | 29.0 | 0.00 | 0.28 | 0.28 | 41 | 1003.9 |
| 20260507212200 | 16 | 285 | 14.5 | 16.1 | 0.00 | 0.28 | 0.28 | 38 | 1003.8 |
| 20260507211657 | 16 | 330 | 8.0 | 17.7 | 0.00 | 0.28 | 0.28 | 37 | 1003.8 |
| 20260507211152 | 16 | 271 | 8.0 | 25.7 | 0.00 | 0.28 | 0.28 | 37 | 1003.6 |
| 20260507210650 | 16 | 336 | 9.7 | 12.9 | 0.00 | 0.28 | 0.28 | 37 | 1003.8 |
| 20260507210146 | 16 | 294 | 9.7 | 32.2 | 0.00 | 0.28 | 0.28 | 38 | 1003.8 |
| 20260507205643 | 16 | 110 | 4.8 | 12.9 | 0.00 | 0.28 | 0.28 | 40 | 1003.7 |
| 20260507205140 | 16 | 337 | 1.6 | 11.3 | 0.00 | 0.28 | 0.28 | 39 | 1003.5 |
| 20260507204636 | 16 | 302 | 11.3 | 16.1 | 0.00 | 0.28 | 0.28 | 40 | 1003.6 |
| 20260507204134 | 16 | 192 | 6.4 | 14.5 | 0.00 | 0.28 | 0.28 | 42 | 1003.4 |
| 20260507203631 | 16 | 289 | 9.7 | 20.9 | 0.00 | 0.28 | 0.28 | 40 | 1003.4 |
| 20260507203129 | 16 | 334 | 11.3 | 20.9 | 0.00 | 0.28 | 0.28 | 40 | 1003.2 |
| 20260507202624 | 16 | 269 | 4.8 | 17.7 | 0.00 | 0.28 | 0.28 | 42 | 1003.2 |
| 20260507202121 | 16 | 86 | 3.2 | 24.1 | 0.00 | 0.28 | 0.28 | 44 | 1003.1 |
| 20260507201616 | 16 | 321 | 3.2 | 17.7 | 0.00 | 0.28 | 0.28 | 42 | 1003.3 |
| 20260507201113 | 16 | 223 | 9.7 | 16.1 | 0.00 | 0.28 | 0.28 | 42 | 1003.2 |
| 20260507200608 | 16 | 208 | 9.7 | 16.1 | 0.00 | 0.28 | 0.28 | 42 | 1003.4 |
| 20260507200105 | 16 | 186 | 4.8 | 20.9 | 0.00 | 0.28 | 0.28 | 43 | 1003.4 |
| 20260507195602 | 16 | 258 | 3.2 | 20.9 | 0.00 | 0.28 | 0.28 | 44 | 1003.3 |
| 20260507195059 | 16 | 298 | 9.7 | 19.3 | 0.00 | 0.28 | 0.28 | 41 | 1003.5 |
| 20260507194555 | 16 | 311 | 8.0 | 11.3 | 0.00 | 0.28 | 0.28 | 47 | 1003.5 |
| 20260507194051 | 16 | 346 | 4.8 | 12.9 | 0.00 | 0.28 | 0.28 | 46 | 1003.5 |
| 20260507193549 | 15 | 313 | 3.2 | 11.3 | 0.00 | 0.28 | 0.28 | 51 | 1003.3 |
| 20260507193046 | 15 | 330 | 0.0 | 8.0 | 0.00 | 0.28 | 0.28 | 54 | 1003.6 |
| 20260507192542 | 15 | 305 | 4.8 | 12.9 | 0.00 | 0.28 | 0.28 | 53 | 1003.4 |
| 20260507192039 | 15 | 15 | 6.4 | 11.3 | 0.00 | 0.28 | 0.28 | 55 | 1003.5 |
| 20260507191534 | 15 | 259 | 17.7 | 20.9 | 0.00 | 0.28 | 0.28 | 52 | 1003.5 |
| 20260507191032 | 15 | 304 | 9.7 | 19.3 | 0.00 | 0.28 | 0.28 | 52 | 1003.5 |
| 20260507190529 | 16 | 215 | 6.4 | 16.1 | 0.00 | 0.28 | 0.28 | 52 | 1003.4 |
| 20260507190027 | 17 | 345 | 3.2 | 9.7 | 0.00 | 0.28 | 0.28 | 51 | 1003.4 |
| 20260507185525 | 16 | 213 | 0.0 | 12.9 | 0.00 | 0.28 | 0.28 | 48 | 1003.3 |
| 20260507185021 | 16 | 309 | 6.4 | 9.7 | 0.00 | 0.28 | 0.28 | 47 | 1003.4 |
| 20260507184520 | 16 | 184 | 4.8 | 9.7 | 0.00 | 0.28 | 0.28 | 50 | 1003.3 |
| 20260507184017 | 17 | 313 | 12.9 | 14.5 | 0.00 | 0.28 | 0.28 | 49 | 1003.5 |
| 20260507183513 | 16 | 190 | 8.0 | 11.3 | 0.00 | 0.28 | 0.28 | 50 | 1003.3 |
| 20260507183011 | 16 | 291 | 6.4 | 14.5 | 0.00 | 0.28 | 0.28 | 51 | 1003.4 |
| 20260507182507 | 16 | 341 | 6.4 | 12.9 | 0.00 | 0.28 | 0.28 | 50 | 1003.2 |
| 20260507182002 | 15 | 286 | 4.8 | 16.1 | 0.00 | 0.28 | 0.28 | 51 | 1003.6 |
| 20260507181459 | 16 | 296 | 6.4 | 9.7 | 0.00 | 0.28 | 0.28 | 48 | 1003.6 |
| 20260507180956 | 16 | 246 | 3.2 | 12.9 | 0.00 | 0.28 | 0.28 | 49 | 1003.6 |
| 20260507180452 | 15 | 231 | 4.8 | 17.7 | 0.00 | 0.28 | 0.28 | 51 | 1003.8 |
| 20260507175948 | 15 | 347 | 6.4 | 8.0 | 0.00 | 0.28 | 0.28 | 51 | 1003.7 |
| 20260507175445 | 15 | 320 | 4.8 | 27.4 | 0.00 | 0.28 | 0.28 | 52 | 1003.8 |
| 20260507174943 | 16 | 271 | 9.7 | 17.7 | 0.00 | 0.28 | 0.28 | 49 | 1004.1 |
| 20260507174440 | 16 | 322 | 8.0 | 9.7 | 0.00 | 0.28 | 0.28 | 51 | 1003.7 |
| 20260507173937 | 15 | 251 | 6.4 | 12.9 | 0.00 | 0.28 | 0.28 | 51 | 1003.7 |
| 20260507173434 | 16 | 253 | 4.8 | 9.7 | 0.00 | 0.28 | 0.28 | 52 | 1003.8 |
| 20260507172932 | 15 | 242 | 14.5 | 19.3 | 0.00 | 0.28 | 0.28 | 50 | 1003.7 |
| 20260507172428 | 15 | 246 | 14.5 | 17.7 | 0.00 | 0.28 | 0.28 | 49 | 1003.8 |
| 20260507171924 | 16 | 235 | 6.4 | 12.9 | 0.00 | 0.28 | 0.28 | 47 | 1003.9 |
| 20260507171420 | 16 | 223 | 12.9 | 17.7 | 0.00 | 0.28 | 0.28 | 47 | 1003.9 |
| 20260507170918 | 16 | 225 | 14.5 | 19.3 | 0.00 | 0.28 | 0.28 | 49 | 1003.9 |
| 20260507170414 | 15 | 7 | 1.6 | 9.7 | 0.00 | 0.28 | 0.28 | 56 | 1004.1 |
| 20260507165910 | 15 | 233 | 3.2 | 17.7 | 0.00 | 0.28 | 0.28 | 51 | 1003.9 |
| 20260507165406 | 15 | 307 | 0.0 | 6.4 | 0.00 | 0.28 | 0.28 | 56 | 1004.0 |
| 20260507164902 | 15 | 297 | 4.8 | 6.4 | 0.00 | 0.28 | 0.28 | 55 | 1004.1 |
| 20260507164359 | 14 | 200 | 8.0 | 8.0 | 0.00 | 0.28 | 0.28 | 56 | 1004.3 |
| 20260507163857 | 15 | 201 | 0.0 | 6.4 | 0.00 | 0.28 | 0.28 | 55 | 1004.3 |
| 20260507163354 | 15 | 77 | 3.2 | 6.4 | 0.00 | 0.28 | 0.28 | 56 | 1004.3 |
| 20260507162850 | 15 | 143 | 3.2 | 6.4 | 0.00 | 0.28 | 0.28 | 56 | 1004.4 |
| 20260507162346 | 15 | 254 | 3.2 | 6.4 | 0.00 | 0.28 | 0.28 | 57 | 1004.4 |
| 20260507161843 | 14 | 231 | 0.0 | 14.5 | 0.00 | 0.28 | 0.28 | 59 | 1004.5 |
| 20260507161340 | 14 | 339 | 4.8 | 9.7 | 0.00 | 0.28 | 0.28 | 58 | 1004.7 |
| 20260507160836 | 15 | 334 | 3.2 | 6.4 | 0.00 | 0.28 | 0.28 | 59 | 1004.7 |
| 20260507160332 | 15 | 298 | 6.4 | 14.5 | 0.00 | 0.28 | 0.28 | 57 | 1004.7 |
| 20260507155829 | 15 | 306 | 4.8 | 8.0 | 0.00 | 0.28 | 0.28 | 56 | 1004.9 |
| 20260507155324 | 14 | 125 | 4.8 | 16.1 | 0.00 | 0.28 | 0.28 | 58 | 1004.9 |
| 20260507154821 | 15 | 313 | 3.2 | 12.9 | 0.00 | 0.28 | 0.28 | 55 | 1005.0 |
| 20260507154319 | 16 | 65 | 3.2 | 8.0 | 0.00 | 0.28 | 0.28 | 55 | 1004.9 |
| 20260507153815 | 15 | 251 | 4.8 | 6.4 | 0.00 | 0.28 | 0.28 | 60 | 1005.0 |
| 20260507153312 | 14 | 100 | 1.6 | 12.9 | 0.00 | 0.28 | 0.28 | 59 | 1005.1 |
| 20260507152808 | 15 | 161 | 4.8 | 8.0 | 0.00 | 0.28 | 0.28 | 57 | 1005.0 |
| 20260507152306 | 15 | 321 | 3.2 | 8.0 | 0.00 | 0.28 | 0.28 | 59 | 1004.9 |
| 20260507151800 | 14 | 180 | 1.6 | 8.0 | 0.00 | 0.28 | 0.28 | 62 | 1005.0 |
| 20260507151257 | 15 | 107 | 9.7 | 9.7 | 0.00 | 0.28 | 0.28 | 58 | 1005.1 |
| 20260507150754 | 15 | 312 | 3.2 | 8.0 | 0.00 | 0.28 | 0.28 | 58 | 1005.2 |
| 20260507150251 | 14 | 7 | 4.8 | 12.9 | 0.00 | 0.28 | 0.28 | 58 | 1005.3 |
| 20260507145747 | 13 | 37 | 11.3 | 12.9 | 0.00 | 0.28 | 0.28 | 58 | 1005.3 |
| 20260507145243 | 14 | 54 | 6.4 | 8.0 | 0.00 | 0.28 | 0.28 | 58 | 1005.3 |
| 20260507144741 | 13 | 26 | 1.6 | 6.4 | 0.00 | 0.28 | 0.28 | 64 | 1005.3 |
| 20260507144238 | 13 | 6 | 9.7 | 17.7 | 0.00 | 0.28 | 0.28 | 61 | 1005.3 |
| 20260507143734 | 13 | 310 | 6.4 | 9.7 | 0.00 | 0.28 | 0.28 | 63 | 1005.7 |
| 20260507143232 | 13 | 2 | 9.7 | 17.7 | 0.00 | 0.28 | 0.28 | 66 | 1005.5 |
| 20260507142728 | 12 | 329 | 4.8 | 17.7 | 0.00 | 0.28 | 0.28 | 62 | 1005.6 |
| 20260507142224 | 12 | 14 | 9.7 | 14.5 | 0.00 | 0.28 | 0.28 | 61 | 1005.8 |
| 20260507141720 | 13 | 329 | 3.2 | 6.4 | 0.00 | 0.28 | 0.28 | 64 | 1005.7 |
| 20260507141218 | 13 | 323 | 9.7 | 14.5 | 0.00 | 0.28 | 0.28 | 61 | 1005.7 |
| 20260507140714 | 12 | 0 | 3.2 | 11.3 | 0.00 | 0.28 | 0.28 | 67 | 1005.7 |
| 20260507140212 | 12 | 286 | 3.2 | 9.7 | 0.00 | 0.28 | 0.28 | 65 | 1006.0 |
| 20260507135708 | 12 | 170 | 3.2 | 11.3 | 0.00 | 0.28 | 0.28 | 66 | 1006.0 |
| 20260507135206 | 12 | 359 | 3.2 | 9.7 | 0.00 | 0.28 | 0.28 | 71 | 1005.8 |
| 20260507134702 | 12 | 39 | 1.6 | 9.7 | 0.00 | 0.28 | 0.28 | 67 | 1005.7 |
| 20260507134158 | 12 | 17 | 6.4 | 8.0 | 0.00 | 0.28 | 0.28 | 68 | 1005.7 |
| 20260507133654 | 12 | 51 | 4.8 | 9.7 | 0.00 | 0.28 | 0.28 | 68 | 1005.8 |
| 20260507133152 | 12 | 58 | 4.8 | 8.0 | 0.00 | 0.28 | 0.28 | 67 | 1005.8 |
| 20260507132649 | 12 | 98 | 1.6 | 6.4 | 0.00 | 0.28 | 0.28 | 68 | 1005.8 |
| 20260507132145 | 12 | 41 | 6.4 | 6.4 | 0.00 | 0.28 | 0.28 | 68 | 1006.0 |
| 20260507131643 | 12 | 53 | 6.4 | 8.0 | 0.00 | 0.28 | 0.28 | 67 | 1005.9 |
| 20260507131140 | 11 | 50 | 8.0 | 9.7 | 0.00 | 0.28 | 0.28 | 69 | 1006.1 |
| 20260507130636 | 11 | 359 | 6.4 | 9.7 | 0.00 | 0.28 | 0.28 | 68 | 1006.2 |
| 20260507130134 | 11 | 333 | 3.2 | 9.7 | 0.00 | 0.28 | 0.28 | 73 | 1006.0 |
| 20260507125633 | 11 | 237 | 3.2 | 9.7 | 0.00 | 0.28 | 0.28 | 74 | 1006.2 |
| 20260507125130 | 11 | 280 | 6.4 | 9.7 | 0.00 | 0.28 | 0.28 | 69 | 1006.3 |
| 20260507124626 | 11 | 21 | 6.4 | 6.4 | 0.00 | 0.28 | 0.28 | 73 | 1006.3 |
| 20260507124124 | 11 | 31 | 8.0 | 9.7 | 0.00 | 0.28 | 0.28 | 72 | 1006.1 |
| 20260507123622 | 10 | 333 | 4.8 | 9.7 | 0.00 | 0.28 | 0.28 | 74 | 1006.2 |
| 20260507123118 | 11 | 314 | 6.4 | 8.0 | 0.00 | 0.28 | 0.28 | 73 | 1006.1 |
| 20260507122613 | 11 | 29 | 8.0 | 9.7 | 0.00 | 0.28 | 0.28 | 71 | 1006.0 |
| 20260507122109 | 10 | 66 | 6.4 | 9.7 | 0.00 | 0.28 | 0.28 | 76 | 1006.1 |
| 20260507121606 | 10 | 345 | 9.7 | 9.7 | 0.00 | 0.28 | 0.28 | 76 | 1006.4 |
| 20260507121102 | 10 | 353 | 11.3 | 14.5 | 0.00 | 0.28 | 0.28 | 77 | 1006.3 |
| 20260507120558 | 10 | 352 | 6.4 | 8.0 | 0.00 | 0.28 | 0.28 | 78 | 1006.3 |
| 20260507120055 | 10 | 19 | 11.3 | 16.1 | 0.00 | 0.28 | 0.28 | 77 | 1006.5 |
| 20260507115551 | 10 | 54 | 0.0 | 8.0 | 0.00 | 0.28 | 0.28 | 80 | 1006.6 |
| 20260507115047 | 10 | 14 | 6.4 | 11.3 | 0.00 | 0.28 | 0.28 | 80 | 1006.4 |
| 20260507114543 | 9 | 295 | 8.0 | 14.5 | 0.00 | 0.28 | 0.28 | 77 | 1006.5 |
| 20260507114040 | 9 | 207 | 3.2 | 9.7 | 0.00 | 0.28 | 0.28 | 79 | 1006.4 |
| 20260507113537 | 9 | 8 | 1.6 | 12.9 | 0.00 | 0.28 | 0.28 | 82 | 1006.4 |
| 20260507113035 | 9 | 262 | 4.8 | 17.7 | 0.00 | 0.28 | 0.28 | 82 | 1006.3 |
| 20260507112532 | 8 | 38 | 4.8 | 9.7 | 0.00 | 0.28 | 0.28 | 82 | 1006.6 |
| 20260507112029 | 9 | 100 | 1.6 | 3.2 | 0.00 | 0.28 | 0.28 | 84 | 1006.7 |
| 20260507111526 | 8 | 140 | 1.6 | 3.2 | 0.00 | 0.28 | 0.28 | 88 | 1006.8 |
| 20260507111022 | 8 | 142 | 3.2 | 4.8 | 0.00 | 0.28 | 0.28 | 89 | 1006.6 |
| 20260507110519 | 8 | 359 | 1.6 | 4.8 | 0.00 | 0.28 | 0.28 | 87 | 1006.6 |
| 20260507110016 | 8 | 54 | 3.2 | 4.8 | 0.00 | 0.28 | 0.28 | 86 | 1006.6 |
| 20260507105513 | 8 | 210 | 3.2 | 6.4 | 0.00 | 0.28 | 0.28 | 87 | 1006.5 |
| 20260507105009 | 9 | 73 | 4.8 | 6.4 | 0.00 | 0.28 | 0.28 | 99 | 1006.2 |
| 20260507104506 | 8 | 93 | 1.6 | 3.2 | 0.00 | 0.28 | 0.28 | 99 | 1006.5 |
| 20260507104002 | 9 | 84 | 0.0 | 3.2 | 0.00 | 0.28 | 0.28 | 99 | 1006.5 |
| 20260507103459 | 8 | 81 | 3.2 | 3.2 | 0.00 | 0.28 | 0.28 | 99 | 1006.6 |
| 20260507102955 | 7 | 114 | 3.2 | 3.2 | 0.00 | 0.28 | 0.28 | 99 | 1006.7 |
| 20260507102452 | 7 | 66 | 0.0 | 3.2 | 0.00 | 0.28 | 0.28 | 99 | 1006.6 |
| 20260507101948 | 7 | 71 | 1.6 | 3.2 | 0.00 | 0.28 | 0.28 | 99 | 1006.1 |
| 20260507101443 | 7 | 68 | 1.6 | 3.2 | 0.00 | 0.28 | 0.28 | 99 | 1006.0 |
| 20260507100940 | 7 | 138 | 3.2 | 4.8 | 0.00 | 0.28 | 0.28 | 99 | 1005.9 |
| 20260507100438 | 6 | 74 | 3.2 | 3.2 | 0.00 | 0.28 | 0.28 | 99 | 1006.2 |
| 20260507095936 | 6 | 132 | 0.0 | 6.4 | 0.00 | 0.28 | 0.28 | 99 | 1005.9 |
| 20260507095433 | 6 | 23 | 4.8 | 6.4 | 0.00 | 0.28 | 0.28 | 99 | 1005.9 |
| 20260507094930 | 6 | 94 | 3.2 | 4.8 | 0.00 | 0.28 | 0.28 | 99 | 1006.2 |
| 20260507094426 | 6 | 86 | 3.2 | 3.2 | 0.00 | 0.28 | 0.28 | 99 | 1005.8 |
| 20260507093923 | 6 | 33 | 0.0 | 3.2 | 0.00 | 0.28 | 0.28 | 99 | 1006.3 |
| 20260507093421 | 6 | 115 | 3.2 | 3.2 | 0.00 | 0.28 | 0.28 | 99 | 1006.0 |
| 20260507092919 | 6 | 104 | 4.8 | 4.8 | 0.00 | 0.28 | 0.28 | 99 | 1006.0 |
| 20260507092415 | 6 | 44 | 1.6 | 3.2 | 0.00 | 0.28 | 0.28 | 99 | 1005.9 |
| 20260507091912 | 6 | 18 | 3.2 | 4.8 | 0.00 | 0.28 | 0.28 | 99 | 1005.9 |
| 20260507091408 | 6 | 321 | 3.2 | 3.2 | 0.00 | 0.28 | 0.28 | 99 | 1006.0 |
| 20260507090904 | 6 | 225 | 0.0 | 3.2 | 0.00 | 0.28 | 0.28 | 99 | 1006.2 |
| 20260507090400 | 6 | 77 | 0.0 | 3.2 | 0.00 | 0.28 | 0.28 | 99 | 1006.1 |
| 20260507085857 | 7 | 57 | 1.6 | 3.2 | 0.00 | 0.28 | 0.28 | 99 | 1006.3 |
| 20260507085354 | 7 | 202 | 0.0 | 3.2 | 0.00 | 0.28 | 0.28 | 99 | 1006.3 |
| 20260507084851 | 7 | 97 | 0.0 | 3.2 | 0.00 | 0.28 | 0.28 | 99 | 1006.0 |
| 20260507084348 | 7 | 62 | 0.0 | 4.8 | 0.00 | 0.28 | 0.28 | 99 | 1005.6 |
| 20260507083845 | 7 | 126 | 3.2 | 4.8 | 0.00 | 0.28 | 0.28 | 99 | 1005.8 |
| 20260507083341 | 7 | 67 | 3.2 | 6.4 | 0.00 | 0.28 | 0.28 | 99 | 1005.5 |
| 20260507082838 | 7 | 28 | 0.0 | 3.2 | 0.00 | 0.28 | 0.28 | 99 | 1005.4 |
| 20260507082333 | 7 | 64 | 6.4 | 6.4 | 0.05 | 0.28 | 0.28 | 99 | 1005.7 |
| 20260507081831 | 7 | 104 | 4.8 | 8.0 | 0.05 | 0.28 | 0.28 | 99 | 1005.6 |
| 20260507081326 | 7 | 23 | 4.8 | 6.4 | 0.00 | 0.28 | 0.28 | 99 | 1005.8 |
| 20260507080823 | 7 | 25 | 4.8 | 6.4 | 0.00 | 0.28 | 0.28 | 99 | 1005.8 |
| 20260507080320 | 7 | 347 | 3.2 | 6.4 | 0.05 | 0.28 | 0.28 | 99 | 1005.8 |
| 20260507075815 | 7 | 7 | 9.7 | 9.7 | 0.00 | 0.28 | 0.28 | 99 | 1005.6 |
| 20260507075312 | 7 | 34 | 4.8 | 6.4 | 0.05 | 0.28 | 0.28 | 99 | 1006.1 |
| 20260507074808 | 8 | 85 | 3.2 | 3.2 | 0.05 | 0.28 | 0.28 | 99 | 1005.8 |
| 20260507074306 | 8 | 86 | 3.2 | 3.2 | 0.00 | 0.25 | 0.25 | 99 | 1006.2 |
| 20260507073803 | 8 | 79 | 0.0 | 1.6 | 0.05 | 0.25 | 0.25 | 99 | 1006.0 |
| 20260507073259 | 8 | 55 | 3.2 | 3.2 | 0.05 | 0.25 | 0.25 | 99 | 1005.5 |
| 20260507072757 | 8 | 83 | 1.6 | 4.8 | 0.05 | 0.25 | 0.25 | 99 | 1005.7 |
| 20260507072254 | 8 | 61 | 3.2 | 4.8 | 0.05 | 0.25 | 0.25 | 99 | 1005.7 |
| 20260507071751 | 8 | 137 | 3.2 | 3.2 | 0.05 | 0.23 | 0.23 | 99 | 1005.7 |
| 20260507071248 | 8 | 43 | 3.2 | 6.4 | 0.05 | 0.23 | 0.23 | 99 | 1005.6 |
| 20260507070745 | 8 | 38 | 1.6 | 3.2 | 0.05 | 0.23 | 0.23 | 99 | 1005.4 |
| 20260507070242 | 8 | 83 | 3.2 | 3.2 | 0.05 | 0.23 | 0.23 | 99 | 1005.2 |
| 20260507065738 | 8 | 25 | 3.2 | 3.2 | 0.05 | 0.23 | 0.23 | 99 | 1005.2 |
| 20260507065235 | 8 | 18 | 1.6 | 3.2 | 0.05 | 0.23 | 0.23 | 99 | 1005.3 |
| 20260507064732 | 8 | 55 | 8.0 | 8.0 | 0.05 | 0.20 | 0.20 | 99 | 1005.1 |
| 20260507064231 | 8 | 53 | 3.2 | 6.4 | 0.05 | 0.20 | 0.20 | 99 | 1005.3 |
| 20260507063728 | 8 | 57 | 1.6 | 3.2 | 0.05 | 0.20 | 0.20 | 99 | 1005.3 |
| 20260507063225 | 8 | 20 | 3.2 | 4.8 | 0.05 | 0.20 | 0.20 | 99 | 1005.1 |
| 20260507062722 | 8 | 62 | 3.2 | 3.2 | 0.05 | 0.18 | 0.18 | 99 | 1005.0 |
| 20260507062219 | 8 | 74 | 0.0 | 3.2 | 0.13 | 0.18 | 0.18 | 99 | 1005.1 |
| 20260507061717 | 8 | 29 | 3.2 | 4.8 | 0.05 | 0.18 | 0.18 | 99 | 1005.2 |
| 20260507061215 | 8 | 54 | 3.2 | 3.2 | 0.05 | 0.18 | 0.18 | 99 | 1005.1 |